Location: Moreno
(32.8734°N, 116.9250°W)
Time: 15:05:22
(UTC+00:00)

Daily predictions for brighter satellites

Satellite Brightness Start Highest point End
(mag) Time Altitude Azimuth Time Altitude Azimuth Time Altitude Azimuth
Cosmos 921 Rocket 4.4 12:09:05 37° ESE 12:09:05 37° ESE 12:12:06 10° SSE
Envisat 4.5 12:07:15 10° NNE 12:11:53 35° E 12:16:29 10° SSE
ATLAS 3B R/B 3.7 12:14:06 10° S 12:20:06 42° ESE 12:26:17 10° NE
Cosmos 1151 Rocket 4.0 12:23:48 35° NE 12:25:01 45° E 12:29:11 10° SSE
H-2A R/B 3.7 12:28:05 40° ENE 12:28:42 45° E 12:32:20 10° S
Cosmos 1634 Rocket 3.9 12:24:45 21° N 12:29:07 85° E 12:35:18 10° S
SL-4 R/B 3.5 12:33:52 24° SSE 12:34:38 26° SE 12:37:39 10° ENE
Meteor 1-31 Rocket 4.2 12:31:51 10° NNE 12:35:31 38° E 12:39:11 10° SSE
BREEZE-M DEB 3.5 12:37:56 44° ENE 12:37:56 44° ENE 12:41:28 10° NE
Okean 3 Rocket 3.5 12:36:38 10° S 12:41:11 86° W 12:45:44 10° N
DELTA 2 R/B (1) 4.1 12:41:22 41° NNW 12:41:50 42° N 12:47:05 10° ENE
Cosmos 1354 Rocket 3.8 12:36:51 10° SSW 12:42:06 75° WNW 12:47:24 10° NNE
Cosmos 2369 Rocket 4.3 12:49:41 11° N 12:49:41 11° N 12:49:59 10° N
MOS 1-B Rocket 4.1 12:39:30 10° SSE 12:45:55 77° ENE 12:51:40 10° N
Cosmos 1328 Rocket 3.9 12:47:57 16° N 12:51:18 64° E 12:55:34 10° SSE
CZ-2C R/B 3.0 12:52:49 10° SSE 12:58:15 66° ENE 13:03:36 10° N
CZ-4B R/B 4.0 12:55:43 10° NNE 13:00:12 90° NE 13:04:37 10° SSW
COSMO-SKYMED 1 2.9 12:57:57 10° SSE 13:02:14 66° ENE 13:06:32 10° N
OAO 2 Rocket 4.1 12:58:55 20° SW 13:02:22 51° SSE 13:07:20 10° E
Meteor 1-10 Rocket 4.3 13:01:44 10° N 13:07:17 75° E 13:12:50 10° SSE
SL-27 R/B 4.1 13:05:05 10° N 13:08:20 33° ENE 13:11:32 10° SE
Cosmos 1408 Rocket 3.3 13:06:35 10° S 13:10:52 77° W 13:15:10 10° N
ADEOS 3.9 13:07:01 10° NNE 13:12:14 70° ESE 13:17:25 10° S
Landsat 5 3.9 13:12:21 10° SSE 13:16:50 71° ENE 13:21:17 10° N
DNEPR-1 R/B 4.1 13:14:24 21° NW 13:18:01 74° WSW 13:24:20 10° SSE
Cosmos 1743 Rocket 3.9 13:17:24 10° S 13:21:46 69° E 13:26:06 10° NNE
FALCON 9 R/B 4.1 13:04:13 22° W 13:22:25 87° SSW 13:29:17 10° ESE
Cosmos 1777 Rocket 4.1 13:21:51 10° SSW 13:26:54 52° WNW 13:32:01 10° N
SJ 16-02 1.4 13:23:49 10° SSW 13:28:03 49° WNW 13:32:18 10° N
Cosmos 1812 4.4 13:33:41 17° WSW 13:33:41 17° WSW 13:35:28 10° SW
Cosmos 773 Rocket 3.9 13:29:27 10° NNW 13:34:40 89° WSW 13:39:48 10° SSE
CZ-2C R/B 3.1 13:31:15 10° NNE 13:36:17 81° ESE 13:41:35 10° S
Cosmos 1515 Rocket 3.4 13:32:35 10° NNW 13:36:55 69° W 13:41:11 10° S
BREEZE-M DEB (TANK) 3.9 13:28:25 12° NW 13:42:06 59° SW 13:46:26 10° SSE
Cosmos 1340 Rocket 2.9 13:38:37 10° SSW 13:42:28 53° W 13:46:22 10° N
Meteor 2-15 Rocket 4.4 13:36:26 10° N 13:42:31 78° W 13:48:33 10° S
NOAA 11 4.2 13:37:21 10° N 13:42:48 66° WNW 13:48:13 10° SSW
CZ-4B R/B 2.5 13:41:47 10° N 13:45:22 85° WNW 13:49:01 10° SSW
ATLAS 5 CENTAUR R/B 2.7 13:44:50 16° WNW 13:45:53 18° NW 13:48:39 10° N
Cosmos 1500 Rocket 3.8 13:44:39 10° SSW 13:48:58 50° W 13:53:19 10° N
SKYMED 2 4.4 13:46:30 10° SSW 13:50:20 31° W 13:54:11 10° NW
Envisat 4.1 13:46:49 10° NNW 13:50:38 22° WNW 13:54:24 10° WSW
Sich 1 3.3 13:47:34 10° S 13:51:50 71° E 13:56:04 10° NNE
Nadezhda 4 Rocket 4.3 13:49:49 10° SSW 13:55:37 43° W 14:01:31 10° N
DMSP B5D2-2 4.1 13:51:03 10° SSE 13:56:15 90° W 14:01:29 10° NNW
H-2A R/B 2.6 13:57:08 10° SSE 14:01:18 61° ENE 14:05:36 10° N
Cosmos 1805 Rocket 3.5 13:57:02 10° SSW 14:01:23 65° W 14:05:44 10° N
COSMOS 2487 2.5 14:01:50 10° NNW 14:05:10 73° ENE 14:08:28 10° SSE
CZ-4C R/B 3.7 14:02:28 10° SSW 14:05:13 28° W 14:07:59 10° NW
Lacrosse 5 2.1 14:00:51 10° SSW 14:05:55 80° SE 14:11:01 10° NE
ATLAS 3B R/B 3.3 14:05:11 10° WSW 14:10:50 31° NW 14:16:43 10° N
Meteor 1-27 Rocket 4.1 14:06:00 10° NNW 14:11:26 46° W 14:16:56 10° SSW
Cosmos 1428 Rocket 4.5 14:05:54 10° SSW 14:12:00 67° W 14:18:05 10° N
Alouette 2 Rocket 3.2 14:08:42 10° NNW 14:12:13 69° W 14:16:16 10° S
SL-4 R/B 2.8 14:11:10 10° W 14:14:05 25° NW 14:17:10 10° NNE
AQUARIUS 4.2 14:09:43 10° NNE 14:14:14 88° WNW 14:18:43 10° SSW
Cosmos 1092 Rocket 4.2 14:08:37 10° SSW 14:14:41 54° W 14:20:52 10° N
Cosmos 1939 Rocket 2.9 14:11:14 10° N 14:14:59 50° WNW 14:18:42 10° SSW
